Regional Weather Roundup
Issued by NWS

Home | Current Version | Previous Version | Graphics & Text | Print | Product List | Glossary On
Versions: 1 2 3 4 5 6 7 8 9 10 11 12 13 14 15 16 17 18 19 20 21 22 23 24 25 26 27 28 29 30 31 32 33 34 35 36 37 38 39 40 41 42 43 44 45 46 47 48 49 50
000
ASUS43 KLSX 211359
RWRMO

WEATHER SUMMARY FOR MISSOURI
NATIONAL WEATHER SERVICE SPRINGFIELD MO
900 AM CDT FRI JUL 21 2017

NOTE: "FAIR" INDICATES FEW OR NO CLOUDS BELOW 12,000 FEET WITH NO
       SIGNIFICANT WEATHER AND/OR OBSTRUCTIONS TO VISIBILITY.
       CURRENT SKY AND/OR WEATHER CONDITIONS ARE NOT AVAILABLE FOR
       CHILLICOTHE AND FARMINGTON.

MOZ001>031-035>038-043-044-053-054-211500-
...NORTHERN AND WESTERN MISSOURI...

CITY           SKY/WX    TMP DP  RH WIND       PRES   REMARKS
KANSAS CTY INT MOSUNNY   85  73  67 SW16      29.94F HX  91
KANSAS C DTWN  SUNNY     87  73  62 SW12      29.94S HX  94
LEE`S SUMMIT   SUNNY     85  74  69 SW15      29.96F HX  92
ST JOSEPH      SUNNY     83  76  79 S12       29.91F HX  91
CHILLICOTHE      N/A     83  77  82 S8        29.95S HX  92
KIRKSVILLE     SUNNY     84  75  74 S9        29.97F HX  92

$$
MOZ066>068-077>081-088>096-101>105-211500-
...SOUTHWEST MISSOURI...

CITY           SKY/WX    TMP DP  RH WIND       PRES   REMARKS
SPRINGFIELD    SUNNY     84  73  69 SW10      30.05S HX  90
JOPLIN         SUNNY     87  74  64 SW16      30.02F HX  95
BRANSON        SUNNY     82  73  74 SW6       30.08S

$$
MOZ032>034-039>042-045>050-055>058-069>072-211500-
...CENTRAL MISSOURI...

CITY           SKY/WX    TMP DP  RH WIND       PRES   REMARKS
COLUMBIA       SUNNY     86  73  65 SW12      30.01S HX  93
JEFFERSON CITY SUNNY     85  76  74 S5        30.00F HX  94
ROLLA          SUNNY     83  74  74 SW8       30.04F
WARRENSBURG    SUNNY     82  72  69 S12       29.97F
OSAGE BEACH    SUNNY     82  73  74 S5        30.03F

$$
MOZ051-052-059>065-211500-
...EAST CENTRAL MISSOURI...

CITY           SKY/WX    TMP DP  RH WIND       PRES   REMARKS
ST LOUIS INTL  MOSUNNY   91  73  55 VRB5      30.02S HX  99
SPIRIT OF STL  SUNNY     87  74  64 VRB5      30.00S HX  95
ST CHARLES     SUNNY     86  76  71 CALM      29.99S HX  96

$$
MOZ072>076-082>087-097>100-106>115-211500-
...SOUTH CENTRAL AND SOUTHEAST MISSOURI...

CITY           SKY/WX    TMP DP  RH WIND       PRES   REMARKS
CAPE GIRARDEAU SUNNY     85  77  77 W5        30.02S HX  95
FARMINGTON     SUNNY     87  75  67 VRB3      30.05S HX  96
POPLAR BLUFF   SUNNY     84  79  85 SW6       30.03S HX  96
WEST PLAINS    SUNNY     85  73  67 VRB3      30.09S HX  91

$$



USA.gov is the U.S. government's official web portal to all federal, state and local government web resources and services.